Location: Ward Pound Ridge Reservation
(41.2500°N, 73.6000°W)
Time: 18:50:00
(UTC-05:00)

OTV 5 (USA 277) - Pass Details

Date: 10 October 2017
Orbit: 404 x 417 km, 43.0° (Epoch: 07 September)

Event Time Altitude Azimuth Distance (km) Brightness Sun altitude
Rises 19:43:02 0° 238° (WSW) 2,346 ? -16.2°
Reaches altitude 10° 19:45:10 10° 233° (SW) 1,486 ? -16.6°
Maximum altitude 19:48:27 50° 157° (SSE) 533 ? -17.2°
Enters shadow 19:48:51 47° 129° (SE) 561 ? -17.3°
